N8VIM Weather Reports


time (UTC)temp
C
wind
direction
speed
KPH
gust
KPH
rain 1hr
cm
rain 24hr
cm
rain mn
cm
humidity
%
barometer
mb
20260906174726 20 278 1.6 6.4 364.26 0.00 0.64 72 1015.3
20260906174226 20 314 4.8 6.4 364.26 0.00 0.64 68 1015.4
20260906173726 19 107 3.2 4.8 364.26 0.00 0.64 78 1015.4
20260906173226 18 27 0.0 4.8 364.26 0.00 0.64 81 1015.4
20260906172726 18 13 1.6 4.8 364.26 0.00 0.64 81 1015.5
20260906172226 18 0 0.0 0.0 364.26 0.00 0.64 83 1015.7
20260906171726 18 280 0.0 6.4 364.26 0.00 0.64 81 1015.8
20260906171226 18 0 0.0 0.0 364.26 0.00 0.64 79 1015.9
20260906170726 18 287 0.0 8.0 364.26 0.00 0.64 76 1015.9
20260906170226 18 280 4.8 6.4 364.26 0.00 0.64 78 1015.8
20260906165226 17 94 1.6 3.2 364.26 0.00 0.64 89 1016.0
20260906164726 17 0 0.0 0.0 364.26 0.00 0.64 88 1016.0
20260906164226 17 266 0.0 0.0 364.26 0.00 0.64 86 1016.1
20260906163725 17 271 0.0 3.2 364.26 0.00 0.64 85 1016.1
20260906163226 17 215 1.6 1.6 364.26 0.00 0.64 83 1016.2
20260906162725 17 294 0.0 4.8 364.26 0.00 0.64 84 1016.3
20260906162225 17 34 0.0 3.2 364.26 0.00 0.64 84 1016.2
20260906161726 17 284 0.0 8.0 364.26 0.00 0.64 84 1016.2
20260906161225 17 287 4.8 9.7 364.26 0.00 0.64 84 1016.2
20260906160725 17 27 1.6 9.7 364.26 0.00 0.64 85 1016.2
20260906160226 17 285 0.0 3.2 364.26 0.00 0.64 86 1016.2
20260906155225 17 290 1.6 6.4 364.26 0.00 0.64 84 1016.4
20260906154726 17 281 3.2 11.3 364.26 0.00 0.64 86 1016.3
20260906154225 17 283 3.2 8.0 364.26 0.00 0.64 89 1016.4
20260906153725 17 252 0.0 4.8 364.26 0.00 0.64 93 1016.4
20260906153226 17 224 3.2 11.3 364.26 0.00 0.64 92 1016.4
20260906152725 17 287 8.0 9.7 364.26 0.00 0.64 91 1016.6
20260906152225 16 257 0.0 1.6 364.26 0.00 0.64 93 1016.6
20260906151726 16 300 0.0 3.2 364.26 0.00 0.64 92 1016.6
20260906150725 16 309 1.6 4.8 364.26 0.00 0.64 89 1016.7
20260906150226 17 338 0.0 8.0 364.26 0.00 0.64 90 1016.7
20260906145725 17 0 3.2 0.0 364.26 0.00 0.64 89 1016.8
20260906144726 17 295 0.0 1.6 364.19 0.00 0.56 88 1016.8
20260906144225 17 278 0.0 8.0 364.19 0.00 0.56 89 1016.8
20260906143226 17 107 0.0 3.2 364.19 0.00 0.56 91 1016.8
20260906141726 16 0 0.0 0.0 364.19 0.00 0.56 94 1016.8
20260906141225 16 0 0.0 0.0 364.19 0.00 0.56 95 1016.7
20260906140725 16 0 0.0 0.0 364.19 0.00 0.56 95 1016.7
20260906140226 16 0 0.0 0.0 364.19 0.00 0.56 95 1016.7
20260906135225 16 0 0.0 0.0 364.19 0.00 0.56 95 1016.6
20260906134726 16 0 0.0 0.0 364.19 0.00 0.56 96 1016.6
20260906134225 16 0 0.0 0.0 364.19 0.00 0.56 97 1016.6
20260906133726 16 0 0.0 0.0 364.19 0.00 0.56 97 1016.6
20260906133226 16 0 0.0 0.0 364.19 0.00 0.56 97 1016.6
20260906132725 15 56 0.0 3.2 364.19 0.00 0.56 97 1016.6
20260906132225 16 89 0.0 6.4 364.19 0.00 0.56 98 1016.5
20260906131726 15 0 0.0 0.0 364.19 0.00 0.56 98 1016.6
20260906131225 15 18 0.0 4.8 364.19 0.00 0.56 98 1016.7
20260906130725 15 0 0.0 0.0 364.19 0.00 0.56 98 1016.7
20260906130226 15 267 0.0 0.0 364.19 0.00 0.56 98 1016.7
20260906125725 15 0 0.0 0.0 364.19 0.00 0.56 98 1016.7
20260906124728 15 0 0.0 0.0 364.19 0.00 0.56 99 1016.7
20260906123725 15 300 0.0 3.2 364.19 0.00 0.56 99 1016.9
20260906123226 15 0 0.0 0.0 364.19 0.00 0.56 99 1016.8
20260906122726 15 0 0.0 0.0 364.19 0.00 0.56 98 1016.7
20260906122225 15 0 0.0 0.0 364.19 0.00 0.56 99 1016.7
20260906121726 15 0 0.0 0.0 364.19 0.00 0.56 99 1016.6
20260906120228 15 0 0.0 0.0 364.19 0.00 0.56 99 1016.5
20260906115725 15 288 0.0 0.0 364.19 0.00 0.56 98 1016.5
20260906115225 15 0 0.0 0.0 364.19 0.00 0.56 99 1016.4
20260906114726 15 293 0.0 3.2 364.19 0.00 0.56 99 1016.3
20260906113725 15 277 0.0 4.8 364.19 0.00 0.56 99 1016.3
20260906113226 15 294 0.0 4.8 364.19 0.00 0.56 99 1016.2
20260906112726 15 280 0.0 4.8 364.19 0.00 0.56 98 1016.2
20260906112225 15 278 1.6 6.4 364.19 0.00 0.56 99 1016.1
20260906111726 15 0 0.0 0.0 364.19 0.00 0.56 99 1016.1
20260906111225 15 262 0.0 1.6 364.19 0.00 0.56 99 1016.0
20260906110725 15 0 0.0 0.0 364.19 0.00 0.56 99 1015.9
20260906110226 15 0 0.0 0.0 364.19 0.00 0.56 99 1015.9
20260906105225 15 0 0.0 0.0 364.19 0.00 0.56 99 1015.8
20260906104726 15 0 0.0 0.0 364.16 0.00 0.53 99 1015.8
20260906103725 15 0 0.0 0.0 364.16 0.00 0.53 99 1015.7
20260906103226 15 0 0.0 0.0 364.16 0.00 0.53 99 1015.5
20260906101726 15 0 0.0 0.0 364.13 0.00 0.51 99 1015.3
20260906100726 15 0 0.0 0.0 364.13 0.00 0.51 99 1015.3
20260906100234 15 0 0.0 0.0 364.13 0.00 0.51 99 1015.2
20260906095725 15 325 0.0 3.2 364.13 0.00 0.51 98 1015.2
20260906095225 15 0 1.6 0.0 364.13 0.00 0.51 99 1015.2
20260906094729 15 0 0.0 0.0 364.13 0.00 0.51 99 1015.1
20260906094225 15 0 0.0 0.0 364.11 0.00 0.48 99 1015.1
20260906093226 15 0 0.0 0.0 364.11 0.00 0.48 99 1015.0
20260906092725 15 0 0.0 0.0 364.11 0.00 0.48 98 1014.9
20260906091725 15 0 0.0 0.0 364.08 0.00 0.46 99 1014.9
20260906091225 15 0 0.0 0.0 364.08 0.00 0.46 99 1014.8
20260906090725 15 0 0.0 0.0 364.08 0.00 0.46 99 1014.7
20260906090225 15 0 0.0 0.0 364.08 0.00 0.46 99 1014.8
20260906085225 15 0 0.0 0.0 364.08 0.00 0.46 99 1014.7
20260906084728 15 0 0.0 0.0 364.08 0.00 0.46 99 1014.7
20260906084225 15 0 0.0 0.0 364.06 0.00 0.43 99 1014.7
20260906083725 15 0 0.0 0.0 364.06 0.00 0.43 99 1014.6
20260906083225 15 0 0.0 0.0 364.01 0.00 0.38 99 1014.6
20260906082725 15 0 0.0 0.0 364.01 0.00 0.38 98 1014.6
20260906082225 15 0 0.0 0.0 363.98 0.00 0.36 99 1014.5
20260906081725 15 0 0.0 0.0 363.93 0.00 0.30 99 1014.5
20260906081225 15 0 0.0 0.0 363.91 0.00 0.28 99 1014.5
20260906080725 15 253 0.0 1.6 363.91 0.00 0.28 99 1014.5
20260906080226 15 253 0.0 1.6 363.91 0.00 0.28 99 1014.3
20260906075725 15 352 0.0 4.8 363.91 0.00 0.28 98 1014.3
20260906074725 15 285 0.0 6.4 363.91 0.00 0.28 99 1014.2
20260906073225 15 293 0.0 4.8 363.91 0.00 0.28 99 1014.2
20260906072725 15 297 1.6 4.8 363.91 0.00 0.28 98 1014.1
20260906072225 15 264 1.6 4.8 363.91 0.00 0.28 99 1014.1
20260906071725 15 260 3.2 3.2 363.91 0.00 0.28 99 1014.0
20260906071225 15 256 0.0 1.6 363.91 0.00 0.28 99 1013.9
20260906070725 15 307 0.0 3.2 363.88 0.00 0.25 99 1013.9
20260906070225 15 309 1.6 4.8 363.88 0.00 0.25 99 1014.0
20260906065225 15 252 0.0 8.0 363.83 0.00 0.20 99 1014.1
20260906064725 15 252 0.0 3.2 363.80 0.00 0.18 99 1014.1
20260906063725 15 281 0.0 4.8 363.75 0.00 0.13 99 1014.1
20260906063228 15 287 3.2 4.8 363.73 0.00 0.10 99 1014.1
20260906062224 15 319 0.0 1.6 363.73 0.00 0.10 99 1014.0
20260906061729 15 298 0.0 3.2 363.73 0.00 0.10 99 1014.0
20260906061225 15 288 0.0 4.8 363.73 0.00 0.10 99 1014.0
20260906060229 15 291 3.2 6.4 363.70 0.00 0.08 99 1014.1
20260906055724 15 274 0.0 8.0 363.70 0.00 0.08 98 1014.2
20260906054725 15 280 1.6 6.4 363.70 0.00 0.08 99 1014.2
20260906053229 15 278 4.8 4.8 363.68 0.00 0.05 99 1014.1
20260906052724 15 257 1.6 4.8 363.68 0.00 0.05 98 1014.1
20260906052224 15 280 3.2 6.4 363.68 0.00 0.05 99 1014.1
20260906051729 15 305 0.0 4.8 363.68 0.00 0.05 99 1014.1
20260906051224 15 269 0.0 4.8 363.68 0.00 0.05 98 1014.2
20260906050726 15 314 1.6 3.2 363.68 0.00 0.05 98 1014.2
20260906050228 15 312 1.6 4.8 363.68 0.00 0.05 98 1014.2
20260906044729 16 305 0.0 3.2 363.68 0.00 0.05 98 1014.2
20260906043724 16 291 6.4 3.2 363.65 0.00 0.03 98 1014.3
20260906043225 16 0 0.0 0.0 363.65 0.00 0.03 98 1014.3
20260906041725 16 288 1.6 8.0 363.65 0.00 0.03 98 1014.3
20260906041224 16 322 1.6 4.8 363.65 0.00 0.03 99 1014.3
20260906040225 16 278 3.2 6.4 363.63 0.00 0.00 98 1014.1
20260906035724 16 290 0.0 6.4 363.63 0.00 0.00 98 1014.1
20260906034728 16 287 1.6 6.4 363.63 0.00 1.70 98 1014.1
20260906033724 16 291 0.0 3.2 363.63 0.00 1.70 98 1014.0
20260906033225 16 295 0.0 3.2 363.63 0.00 1.70 98 1013.9
20260906032224 16 273 3.2 6.4 363.60 0.00 1.68 98 1013.9
20260906031725 16 278 1.6 3.2 363.60 0.00 1.68 98 1013.9
20260906031224 16 273 0.0 4.8 363.60 0.00 1.68 98 1013.9
20260906030724 16 297 3.2 3.2 363.60 0.00 1.68 98 1014.0
20260906030225 16 274 1.6 4.8 363.60 0.00 1.68 98 1014.0
20260906025724 16 297 1.6 3.2 363.60 0.00 1.68 98 1014.0
20260906024725 16 271 0.0 3.2 363.60 0.00 1.68 98 1014.0
20260906024224 16 290 0.0 6.4 363.60 0.00 1.68 98 1014.0
20260906023724 16 283 4.8 6.4 363.60 0.00 1.68 98 1013.9
20260906023225 16 288 3.2 3.2 363.60 0.00 1.68 98 1014.0
20260906022724 16 316 3.2 4.8 363.60 0.00 1.68 98 1014.0
20260906022224 16 283 1.6 4.8 363.60 0.00 1.68 98 1013.9
20260906021725 16 276 0.0 1.6 363.60 0.00 1.68 98 1013.8
20260906021224 16 285 1.6 3.2 363.60 0.00 1.68 98 1013.8
20260906020724 16 0 1.6 0.0 363.60 0.00 1.68 98 1013.9
20260906020225 16 0 0.0 0.0 363.60 0.00 1.68 98 1013.9
20260906015724 16 257 0.0 3.2 363.60 0.00 1.68 97 1013.8
20260906015224 16 273 1.6 4.8 363.60 0.00 1.68 98 1013.8
20260906014725 16 291 3.2 3.2 363.60 0.00 1.68 98 1013.9
20260906014224 16 252 0.0 0.0 363.58 0.00 1.65 98 1013.9
20260906013724 16 0 0.0 0.0 363.58 0.00 1.65 98 1014.0
20260906013225 16 0 0.0 0.0 363.52 0.00 1.60 98 1014.2
20260906011725 16 287 0.0 1.6 363.50 0.00 1.57 98 1014.0
20260906010724 16 293 0.0 4.8 363.47 0.00 1.55 98 1014.1
20260906010225 16 281 0.0 4.8 363.47 0.00 1.55 98 1014.0
20260906005724 16 288 1.6 4.8 363.47 0.00 1.55 97 1013.9
20260906005224 16 276 3.2 6.4 363.47 0.00 1.55 98 1013.8
20260906004725 16 281 3.2 3.2 363.47 0.00 1.55 97 1013.8
20260906003225 17 0 1.6 0.0 363.45 0.00 1.52 97 1013.7
20260906002724 17 0 0.0 0.0 363.45 0.00 1.52 97 1013.6
20260906002224 17 293 0.0 3.2 363.45 0.00 1.52 97 1013.5
20260906001725 17 0 0.0 0.0 363.42 0.00 1.50 97 1013.5
20260906001224 17 0 0.0 0.0 363.42 0.00 1.50 97 1013.5
20260906000226 17 300 0.0 1.6 363.42 0.00 1.50 97 1013.5
20260905235224 17 0 0.0 0.0 363.42 0.00 1.50 97 1013.4
20260905234725 17 281 0.0 1.6 363.42 0.00 1.50 97 1013.5
20260905234224 17 0 0.0 0.0 363.42 0.00 1.50 97 1013.4
20260905233724 17 0 0.0 0.0 363.42 0.00 1.50 97 1013.4
20260905233225 17 0 0.0 0.0 363.42 0.00 1.50 97 1013.3
20260905232224 17 287 0.0 1.6 363.42 0.00 1.50 96 1013.2
20260905231724 17 285 0.0 1.6 363.42 0.00 1.50 97 1013.2
20260905230224 17 281 0.0 4.8 363.42 0.00 1.50 96 1013.1
20260905225724 17 273 3.2 6.4 363.42 0.00 1.50 96 1013.1
20260905225224 17 0 0.0 0.0 363.42 0.00 1.50 96 1013.0
20260905224724 17 0 0.0 0.0 363.42 0.00 1.50 96 1012.9
20260905223224 17 0 0.0 0.0 363.42 0.00 1.50 94 1012.7
20260905222724 17 0 0.0 0.0 363.42 0.00 1.50 94 1012.8
20260905222224 17 0 0.0 0.0 363.42 0.00 1.50 94 1012.7
20260905221724 17 0 0.0 0.0 363.42 0.00 1.50 94 1012.6
20260905220724 17 0 0.0 0.0 363.42 0.00 1.50 93 1012.7
20260905220225 17 0 0.0 0.0 363.42 0.00 1.50 92 1012.7
20260905215724 17 0 0.0 0.0 363.42 0.00 1.50 92 1012.7
20260905214724 18 0 0.0 0.0 363.35 0.00 1.42 90 1012.5
20260905214224 18 0 0.0 0.0 363.32 0.00 1.40 90 1012.5
20260905213724 18 0 0.0 0.0 363.30 0.00 1.37 89 1012.4
20260905213225 18 0 0.0 0.0 363.22 0.00 1.30 89 1012.3
20260905212724 18 0 0.0 0.0 363.17 0.00 1.24 88 1012.3
20260905212224 18 72 0.0 1.6 363.07 0.00 1.14 88 1012.2
20260905211725 18 55 0.0 8.0 362.94 0.00 1.02 88 1012.2
20260905211224 19 52 1.6 3.2 362.89 0.00 0.97 87 1012.2
20260905210724 19 25 1.6 3.2 362.81 0.00 0.89 87 1012.1
20260905210224 20 55 1.6 3.2 362.79 0.00 0.86 85 1012.0
20260905205724 20 60 0.0 3.2 362.76 0.00 0.84 84 1011.8
20260905204724 20 58 3.2 4.8 362.43 0.00 0.51 84 1011.7
20260905204224 20 274 0.0 3.2 361.95 0.00 0.03 81 1011.6
20260905203724 20 290 1.6 4.8 361.95 0.00 0.03 81 1011.4
20260905203224 20 276 3.2 8.0 361.95 0.00 0.03 82 1011.3
20260905202724 20 280 1.6 8.0 361.95 0.00 0.03 82 1011.2
20260905202224 20 264 1.6 6.4 361.95 0.00 0.03 84 1011.2
20260905201725 20 280 3.2 3.2 361.95 0.00 0.03 83 1011.2
20260905201224 20 0 0.0 0.0 361.95 0.00 0.03 80 1011.3
20260905200724 20 0 0.0 0.0 361.95 0.00 0.03 78 1011.2
20260905200225 21 0 0.0 0.0 361.95 0.00 0.03 78 1011.2
20260905195724 21 0 0.0 0.0 361.95 0.00 0.03 76 1011.2
20260905195224 21 0 0.0 0.0 361.95 0.00 0.03 73 1011.2
20260905194725 21 0 0.0 0.0 361.95 0.00 0.03 70 1011.2
20260905194224 22 0 0.0 0.0 361.95 0.00 0.03 70 1011.2
20260905193724 22 0 0.0 0.0 361.95 0.00 0.03 70 1011.2
20260905193224 22 0 0.0 0.0 361.95 0.00 0.03 70 1011.1
20260905192723 22 0 0.0 0.0 361.95 0.00 0.03 69 1011.2
20260905192223 22 0 0.0 0.0 361.95 0.00 0.03 69 1011.2
20260905191724 22 0 0.0 0.0 361.95 0.00 0.03 70 1011.2
20260905191223 22 0 0.0 0.0 361.95 0.00 0.03 71 1011.2
20260905190723 22 69 0.0 6.4 361.95 0.00 0.03 71 1011.1
20260905190224 22 128 3.2 3.2 361.95 0.00 0.03 72 1011.2
20260905185723 22 0 0.0 0.0 361.95 0.00 0.03 73 1011.2
20260905185223 22 0 0.0 0.0 361.95 0.00 0.03 71 1011.2
20260905184725 22 0 0.0 0.0 361.95 0.00 0.03 70 1011.3
20260905184223 22 0 0.0 0.0 361.95 0.00 0.03 69 1011.2
20260905183723 23 66 0.0 4.8 361.95 0.00 0.03 67 1011.2
20260905183225 23 129 0.0 3.2 361.95 0.00 0.03 66 1011.1
20260905182723 23 58 1.6 4.8 361.92 0.00 0.00 64 1011.1
20260905182223 22 48 3.2 3.2 361.92 0.00 0.00 65 1011.2
20260905181724 22 229 0.0 3.2 361.92 0.00 0.00 65 1011.2
20260905181223 22 260 0.0 4.8 361.92 0.00 0.00 66 1011.1
20260905180224 22 0 0.0 0.0 361.92 0.00 0.00 65 1011.2
20260905175723 22 0 0.0 0.0 361.92 0.00 0.00 72 1011.3